Weather History for KTTD - February, 2014

Change the Weather History Date:

Tuesday, February 25, 2014

  Actual Average Record
Temperature  
Mean Temperature 43 °F 44 °F  
Max Temperature 46 °F 52 °F 67 °F (1968)
Min Temperature 39 °F 36 °F 16 °F (2003)
Degree Days  
Heating Degree Days 22 21  
Month to date heating degree days 603 563  
Cooling Degree Days 0 0  
Month to date cooling degree days 0 0  
Moisture  
Dew Point 30 °F    
Average Humidity 65    
Maximum Humidity 76    
Minimum Humidity 53    
Precipitation  
Precipitation T in 0.17 in 1.30 in (1994)
Month to date precipitation 3.18 4.53  
Year to date precipitation 6.04 10.71  
Sea Level Pressure  
Sea Level Pressure 30.05 in    
Wind  
Wind Speed 24 mph (East)    
Max Wind Speed 32 mph    
Max Gust Speed 42 mph    
Visibility 10 miles    
Events Rain    
T = Trace of Precipitation, MM = Missing Value Source: NWS Daily Summary

Daily Weather History Graph

Daily Weather History Graph

Search for Another Location

Airport or City:

Trip Planner

Search our weather history database for the weather conditions in past years. The results will help you decide how hot, cold, wet, or windy it might be!

Date:

Astronomy

Feb. 25, 2014 Rise Set
Actual Time 6:54 AM PST 5:51 PM PST
Civil Twilight 6:24 AM PST 6:21 PM PST
Nautical Twilight 5:50 AM PST 6:55 PM PST
Astronomical Twilight 5:16 AM PST 7:29 PM PST
Moon 4:02 AM PST (2/25) 1:55 PM PST (2/25)
Length of Visible Light 11h 56m
Length of Day
10h 56m
Waning Crescent, 17% of the Moon is Illuminated
Feb 25
Waning Crescent
Mar 1
New
Mar 8
First Quarter
Mar 16
Full
Mar 23
Last Quarter

Hourly Weather History & Observations

Time (PST) Temp. Windchill Dew Point Humidity Pressure Visibility Wind Dir Wind Speed Gust Speed Precip Events Conditions
12:53 AM 41.0 °F 30.2 °F 32.0 °F 70% 30.05 in 10.0 mi East 27.6 mph 35.7 mph N/A   Mostly Cloudy
1:53 AM 39.9 °F 29.0 °F 32.0 °F 73% 30.06 in 10.0 mi East 26.5 mph 35.7 mph N/A   Clear
2:53 AM 39.9 °F 28.8 °F 32.0 °F 73% 30.05 in 10.0 mi East 27.6 mph 39.1 mph N/A   Mostly Cloudy
3:53 AM 39.9 °F 28.2 °F 32.0 °F 73% 30.04 in 10.0 mi East 31.1 mph 40.3 mph 0.00 in Rain Light Rain
4:53 AM 39.9 °F 28.8 °F 32.0 °F 73% 30.05 in 10.0 mi East 27.6 mph 32.2 mph 0.00 in   Mostly Cloudy
5:53 AM 39.9 °F 30.2 °F 30.0 °F 68% 30.07 in 10.0 mi East 20.7 mph 29.9 mph N/A   Partly Cloudy
6:53 AM 41.0 °F 32.2 °F 30.0 °F 65% 30.07 in 10.0 mi East 18.4 mph 32.2 mph N/A   Partly Cloudy
7:53 AM 41.0 °F 31.1 °F 30.0 °F 65% 30.08 in 10.0 mi East 23.0 mph 31.1 mph N/A   Clear
8:53 AM 43.0 °F 33.8 °F 30.0 °F 60% 30.09 in 10.0 mi East 23.0 mph 29.9 mph N/A   Partly Cloudy
9:53 AM 44.1 °F 35.7 °F 30.0 °F 58% 30.09 in 10.0 mi ENE 20.7 mph 36.8 mph N/A   Partly Cloudy
10:53 AM 44.1 °F 35.4 °F 30.9 °F 60% 30.09 in 10.0 mi East 21.9 mph 33.4 mph N/A   Clear
11:53 AM 45.0 °F 36.4 °F 30.9 °F 58% 30.08 in 10.0 mi East 23.0 mph 32.2 mph N/A   Partly Cloudy
12:53 PM 46.0 °F 37.0 °F 32.0 °F 58% 30.06 in 10.0 mi East 27.6 mph 39.1 mph N/A   Clear
1:53 PM 45.0 °F 35.6 °F 30.9 °F 58% 30.04 in 10.0 mi East 27.6 mph 38.0 mph N/A   Clear
2:53 PM 45.0 °F 36.0 °F 30.9 °F 58% 30.04 in 10.0 mi East 25.3 mph 35.7 mph N/A   Clear
3:53 PM 46.0 °F 37.8 °F 30.9 °F 56% 30.02 in 10.0 mi East 23.0 mph 38.0 mph N/A   Clear
4:53 PM 43.0 °F 33.3 °F 30.0 °F 60% 30.01 in 10.0 mi East 25.3 mph 34.5 mph N/A   Clear
5:53 PM 42.1 °F 32.6 °F 28.9 °F 60% 30.02 in 10.0 mi East 23.0 mph 33.4 mph N/A   Clear
6:53 PM 41.0 °F 31.1 °F 30.0 °F 65% 30.03 in 10.0 mi East 23.0 mph 31.1 mph N/A   Clear
7:53 PM 42.1 °F 33.1 °F 28.9 °F 60% 30.02 in 10.0 mi East 20.7 mph 28.8 mph N/A   Clear
8:53 PM 41.0 °F 31.4 °F 28.9 °F 62% 30.03 in 10.0 mi East 21.9 mph - N/A   Clear
9:53 PM 41.0 °F 30.7 °F 28.9 °F 62% 30.02 in 10.0 mi East 25.3 mph 35.7 mph N/A   Clear
10:53 PM 41.0 °F 31.4 °F 28.0 °F 60% 30.01 in 10.0 mi East 21.9 mph 31.1 mph N/A   Clear
11:53 PM 39.9 °F 30.0 °F 28.0 °F 63% 30.00 in 10.0 mi East 21.9 mph 32.2 mph N/A   Clear